Wetterdaten: Sonntag, 12.01.2014
Datum Zeit Temperatur Luftfeuchte Luftdruck Regen Wind Richtung Richtung Taupunkt Windchill Windben
12.01.2014 00:00 5,6 C 85 % 1022,4 hPa 0,0 l/m 5,0 km/h (1 Bft) O 90 3,3 C 5,5 C 3,2 km/h (1 Bft)
12.01.2014 00:05 5,6 C 85 % 1022,7 hPa 0,0 l/m 5,0 km/h (1 Bft) S 180 3,3 C 5,5 C 6,1 km/h (2 Bft)
12.01.2014 00:10 5,6 C 84 % 1022,7 hPa 0,0 l/m 4,7 km/h (1 Bft) W-SW 247 3,1 C 5,7 C 5,0 km/h (1 Bft)
12.01.2014 00:15 5,7 C 84 % 1022,7 hPa 0,0 l/m 4,3 km/h (1 Bft) SO 135 3,2 C 5,8 C 3,1 km/h (1 Bft)
12.01.2014 00:20 5,7 C 84 % 1022,7 hPa 0,0 l/m 4,8 km/h (1 Bft) SO 135 3,2 C 5,6 C 11,1 km/h (2 Bft)
12.01.2014 00:25 5,7 C 83 % 1022,7 hPa 0,0 l/m 5,8 km/h (2 Bft) N 360 3,0 C 5,2 C 8,7 km/h (2 Bft)
12.01.2014 00:30 5,7 C 83 % 1022,7 hPa 0,0 l/m 6,1 km/h (2 Bft) S-SW 202 3,0 C 5,2 C 13,5 km/h (3 Bft)
12.01.2014 00:35 5,8 C 83 % 1022,7 hPa 0,0 l/m 5,8 km/h (2 Bft) O-SO 112 3,1 C 5,2 C 6,9 km/h (2 Bft)
12.01.2014 00:40 5,7 C 82 % 1022,7 hPa 0,0 l/m 6,0 km/h (2 Bft) S-SO 157 2,9 C 5,2 C 5,1 km/h (1 Bft)
12.01.2014 00:45 5,7 C 82 % 1022,2 hPa 0,0 l/m 6,0 km/h (2 Bft) SO 135 2,9 C 5,2 C 7,6 km/h (2 Bft)
12.01.2014 00:50 5,6 C 82 % 1022,2 hPa 0,0 l/m 5,0 km/h (1 Bft) S-SO 157 2,8 C 5,5 C 6,9 km/h (2 Bft)
12.01.2014 00:53 5,7 C 82 % 1022,2 hPa 0,0 l/m 4,5 km/h (1 Bft) O-SO 112 2,9 C 5,7 C 3,4 km/h (1 Bft)
12.01.2014 00:55 5,7 C 82 % 1022,2 hPa 0,0 l/m 4,5 km/h (1 Bft) O-SO 112 2,9 C 5,7 C 3,4 km/h (1 Bft)
12.01.2014 01:00 5,4 C 82 % 1022,2 hPa 0,0 l/m 3,2 km/h (1 Bft) O-NO 67 2,6 C 6,2 C 3,9 km/h (1 Bft)
12.01.2014 01:05 5,3 C 82 % 1022,6 hPa 0,0 l/m 2,1 km/h (1 Bft) S 180 2,5 C 6,0 C 5,3 km/h (1 Bft)
12.01.2014 01:10 5,0 C 82 % 1022,6 hPa 0,0 l/m 2,9 km/h (1 Bft) S 180 2,2 C 6,0 C 4,5 km/h (1 Bft)
12.01.2014 01:15 5,1 C 83 % 1022,6 hPa 0,0 l/m 4,0 km/h (1 Bft) S 180 2,5 C 5,6 C 4,8 km/h (1 Bft)
12.01.2014 01:20 5,0 C 83 % 1022,6 hPa 0,0 l/m 3,4 km/h (1 Bft) S 180 2,4 C 5,9 C 1,8 km/h (1 Bft)
12.01.2014 01:25 5,1 C 83 % 1023,2 hPa 0,0 l/m 2,6 km/h (1 Bft) O-SO 112 2,5 C 6,0 C 2,7 km/h (1 Bft)
12.01.2014 01:30 5,1 C 83 % 1023,2 hPa 0,0 l/m 1,1 km/h (1 Bft) S-SW 202 2,5 C 5,9 C 0,0 km/h (0 Bft)
12.01.2014 01:35 5,0 C 83 % 1023,2 hPa 0,0 l/m 0,8 km/h (0 Bft) S-SW 202 2,4 C 5,9 C 5,5 km/h (1 Bft)
12.01.2014 01:40 5,2 C 84 % 1023,2 hPa 0,0 l/m 1,3 km/h (1 Bft) SO 135 2,7 C 5,9 C 3,2 km/h (1 Bft)
12.01.2014 01:45 5,3 C 84 % 1023,7 hPa 0,0 l/m 2,1 km/h (1 Bft) O-SO 112 2,8 C 5,9 C 4,8 km/h (1 Bft)
12.01.2014 01:50 5,5 C 84 % 1023,7 hPa 0,0 l/m 4,2 km/h (1 Bft) S-SO 157 3,0 C 5,6 C 4,3 km/h (1 Bft)
12.01.2014 01:55 5,3 C 83 % 1023,7 hPa 0,0 l/m 4,8 km/h (1 Bft) S-SO 157 2,7 C 5,3 C 4,3 km/h (1 Bft)
12.01.2014 02:00 5,4 C 84 % 1023,7 hPa 0,0 l/m 3,2 km/h (1 Bft) S-SO 157 2,9 C 6,0 C 2,1 km/h (1 Bft)
12.01.2014 02:05 5,3 C 83 % 1023,6 hPa 0,0 l/m 2,9 km/h (1 Bft) O 90 2,7 C 6,0 C 2,6 km/h (1 Bft)
12.01.2014 02:10 5,4 C 84 % 1023,6 hPa 0,0 l/m 2,3 km/h (1 Bft) SO 135 2,9 C 6,0 C 5,0 km/h (1 Bft)
12.01.2014 02:15 5,3 C 84 % 1023,6 hPa 0,0 l/m 2,9 km/h (1 Bft) O 90 2,8 C 6,0 C 7,2 km/h (2 Bft)
12.01.2014 02:20 5,3 C 83 % 1023,6 hPa 0,0 l/m 3,1 km/h (1 Bft) S 180 2,7 C 6,0 C 3,9 km/h (1 Bft)
12.01.2014 02:25 5,3 C 84 % 1023,7 hPa 0,0 l/m 2,4 km/h (1 Bft) S 180 2,8 C 6,0 C 0,0 km/h (0 Bft)
12.01.2014 02:30 5,2 C 84 % 1023,7 hPa 0,0 l/m 2,4 km/h (1 Bft) S-SO 157 2,7 C 6,0 C 3,2 km/h (1 Bft)
12.01.2014 02:35 5,1 C 84 % 1023,7 hPa 0,0 l/m 2,1 km/h (1 Bft) O-SO 112 2,6 C 5,9 C 0,0 km/h (0 Bft)
12.01.2014 02:40 5,0 C 84 % 1023,7 hPa 0,0 l/m 1,9 km/h (1 Bft) S-SO 157 2,5 C 5,9 C 2,1 km/h (1 Bft)
12.01.2014 02:45 5,1 C 84 % 1023,8 hPa 0,0 l/m 1,8 km/h (1 Bft) S 180 2,6 C 5,9 C 3,5 km/h (1 Bft)
12.01.2014 02:50 5,1 C 84 % 1023,8 hPa 0,0 l/m 2,7 km/h (1 Bft) S 180 2,6 C 5,9 C 4,2 km/h (1 Bft)
12.01.2014 02:55 5,0 C 85 % 1023,8 hPa 0,0 l/m 3,5 km/h (1 Bft) S 180 2,7 C 5,6 C 5,8 km/h (2 Bft)
12.01.2014 03:00 4,9 C 85 % 1023,8 hPa 0,0 l/m 3,9 km/h (1 Bft) SO 135 2,6 C 5,4 C 5,8 km/h (2 Bft)
12.01.2014 03:05 4,9 C 85 % 1023,6 hPa 0,0 l/m 4,2 km/h (1 Bft) S-SO 157 2,6 C 5,2 C 6,0 km/h (2 Bft)
12.01.2014 03:10 4,8 C 86 % 1023,6 hPa 0,0 l/m 4,5 km/h (1 Bft) S-SW 202 2,7 C 5,1 C 6,3 km/h (2 Bft)
12.01.2014 03:15 4,9 C 86 % 1023,6 hPa 0,0 l/m 5,1 km/h (1 Bft) S 180 2,8 C 4,8 C 8,4 km/h (2 Bft)
12.01.2014 03:20 4,9 C 87 % 1023,6 hPa 0,0 l/m 5,8 km/h (2 Bft) S 180 2,9 C 4,6 C 4,8 km/h (1 Bft)
12.01.2014 03:25 4,9 C 87 % 1023,4 hPa 0,0 l/m 5,8 km/h (2 Bft) S 180 2,9 C 4,5 C 4,2 km/h (1 Bft)
12.01.2014 03:30 4,7 C 87 % 1023,4 hPa 0,0 l/m 4,7 km/h (1 Bft) S 180 2,7 C 4,9 C 3,4 km/h (1 Bft)
12.01.2014 03:35 4,7 C 87 % 1023,4 hPa 0,0 l/m 4,0 km/h (1 Bft) S-SW 202 2,7 C 5,1 C 2,6 km/h (1 Bft)
12.01.2014 03:40 4,6 C 87 % 1023,4 hPa 0,0 l/m 3,2 km/h (1 Bft) S 180 2,6 C 5,3 C 2,1 km/h (1 Bft)
12.01.2014 03:45 4,5 C 87 % 1023,4 hPa 0,0 l/m 2,9 km/h (1 Bft) W-SW 247 2,5 C 5,4 C 2,1 km/h (1 Bft)
12.01.2014 03:50 4,4 C 87 % 1023,4 hPa 0,0 l/m 1,6 km/h (1 Bft) W-SW 247 2,4 C 5,4 C 0,0 km/h (0 Bft)
12.01.2014 03:55 4,3 C 87 % 1023,4 hPa 0,0 l/m 1,0 km/h (0 Bft) S-SO 157 2,3 C 5,3 C 2,3 km/h (1 Bft)
12.01.2014 04:00 4,4 C 88 % 1023,4 hPa 0,0 l/m 1,8 km/h (1 Bft) S 180 2,6 C 5,3 C 1,9 km/h (1 Bft)
12.01.2014 04:05 4,4 C 88 % 1023,5 hPa 0,0 l/m 1,8 km/h (1 Bft) N-NO 22 2,6 C 5,3 C 2,6 km/h (1 Bft)
12.01.2014 04:10 4,4 C 88 % 1023,5 hPa 0,0 l/m 2,3 km/h (1 Bft) S 180 2,6 C 5,3 C 5,0 km/h (1 Bft)
12.01.2014 04:15 4,5 C 88 % 1023,5 hPa 0,0 l/m 4,0 km/h (1 Bft) S 180 2,7 C 4,9 C 4,2 km/h (1 Bft)
12.01.2014 04:20 4,4 C 88 % 1023,5 hPa 0,0 l/m 4,3 km/h (1 Bft) S 180 2,6 C 4,8 C 3,5 km/h (1 Bft)
12.01.2014 04:25 4,4 C 88 % 1023,6 hPa 0,0 l/m 3,4 km/h (1 Bft) SO 135 2,6 C 5,2 C 3,4 km/h (1 Bft)
12.01.2014 04:30 4,6 C 89 % 1023,6 hPa 0,0 l/m 2,9 km/h (1 Bft) SO 135 2,9 C 5,4 C 2,9 km/h (1 Bft)
12.01.2014 04:35 4,6 C 89 % 1023,6 hPa 0,0 l/m 3,1 km/h (1 Bft) S-SO 157 2,9 C 5,4 C 4,3 km/h (1 Bft)
12.01.2014 04:40 4,6 C 89 % 1023,6 hPa 0,0 l/m 4,0 km/h (1 Bft) S-SO 157 2,9 C 4,9 C 2,6 km/h (1 Bft)
12.01.2014 04:45 4,6 C 89 % 1023,5 hPa 0,0 l/m 4,7 km/h (1 Bft) O-SO 112 2,9 C 4,7 C 3,7 km/h (1 Bft)
12.01.2014 04:50 4,5 C 89 % 1023,5 hPa 0,0 l/m 3,7 km/h (1 Bft) S 180 2,8 C 5,1 C 6,0 km/h (2 Bft)
12.01.2014 04:55 4,4 C 89 % 1023,5 hPa 0,0 l/m 3,4 km/h (1 Bft) S 180 2,7 C 5,2 C 2,9 km/h (1 Bft)
12.01.2014 05:00 4,7 C 89 % 1023,5 hPa 0,0 l/m 3,7 km/h (1 Bft) O-SO 112 3,0 C 5,1 C 5,3 km/h (1 Bft)
12.01.2014 05:05 4,7 C 89 % 1023,8 hPa 0,0 l/m 3,5 km/h (1 Bft) O-SO 112 3,0 C 5,2 C 3,1 km/h (1 Bft)
12.01.2014 05:10 4,6 C 89 % 1023,8 hPa 0,0 l/m 3,7 km/h (1 Bft) S-SO 157 2,9 C 5,1 C 4,5 km/h (1 Bft)
12.01.2014 05:15 4,6 C 88 % 1023,8 hPa 0,0 l/m 3,7 km/h (1 Bft) S 180 2,8 C 5,1 C 5,1 km/h (1 Bft)
12.01.2014 05:20 4,5 C 88 % 1023,8 hPa 0,0 l/m 4,2 km/h (1 Bft) S-SW 202 2,7 C 4,8 C 3,1 km/h (1 Bft)
12.01.2014 05:25 4,4 C 88 % 1023,7 hPa 0,0 l/m 3,7 km/h (1 Bft) SO 135 2,6 C 4,9 C 6,8 km/h (2 Bft)
12.01.2014 05:30 4,4 C 88 % 1023,7 hPa 0,0 l/m 3,7 km/h (1 Bft) S-SW 202 2,6 C 4,9 C 1,9 km/h (1 Bft)
12.01.2014 05:35 4,4 C 88 % 1023,7 hPa 0,0 l/m 3,9 km/h (1 Bft) S 180 2,6 C 4,9 C 2,4 km/h (1 Bft)
12.01.2014 05:40 4,4 C 88 % 1023,7 hPa 0,0 l/m 2,9 km/h (1 Bft) S 180 2,6 C 5,3 C 2,3 km/h (1 Bft)
12.01.2014 05:45 4,3 C 88 % 1023,6 hPa 0,0 l/m 3,1 km/h (1 Bft) S 180 2,5 C 5,2 C 6,0 km/h (2 Bft)
12.01.2014 05:50 4,2 C 88 % 1023,6 hPa 0,0 l/m 3,5 km/h (1 Bft) S-SO 157 2,4 C 4,8 C 2,1 km/h (1 Bft)
12.01.2014 05:55 4,1 C 88 % 1023,6 hPa 0,0 l/m 2,4 km/h (1 Bft) S 180 2,3 C 5,1 C 0,0 km/h (0 Bft)
12.01.2014 06:00 4,0 C 88 % 1023,6 hPa 0,0 l/m 0,3 km/h (0 Bft) SO 135 2,2 C 5,1 C 0,0 km/h (0 Bft)
12.01.2014 06:05 3,9 C 88 % 1023,8 hPa 0,0 l/m 0,5 km/h (0 Bft) S-SW 202 2,1 C 5,0 C 2,7 km/h (1 Bft)
12.01.2014 06:10 3,9 C 88 % 1023,8 hPa 0,0 l/m 1,1 km/h (1 Bft) S 180 2,1 C 5,0 C 0,0 km/h (0 Bft)
12.01.2014 06:15 3,8 C 88 % 1023,8 hPa 0,0 l/m 0,8 km/h (0 Bft) S 180 2,0 C 4,9 C 0,0 km/h (0 Bft)
12.01.2014 06:20 3,8 C 88 % 1023,8 hPa 0,0 l/m 0,0 km/h (0 Bft) S 180 2,0 C 4,8 C 0,0 km/h (0 Bft)
12.01.2014 06:25 3,8 C 88 % 1024,0 hPa 0,0 l/m 0,0 km/h (0 Bft) O-SO 112 2,0 C 4,7 C 0,0 km/h (0 Bft)
12.01.2014 06:30 3,8 C 88 % 1024,0 hPa 0,0 l/m 0,0 km/h (0 Bft) O-SO 112 2,0 C 4,6 C 0,0 km/h (0 Bft)
12.01.2014 06:35 3,6 C 88 % 1024,0 hPa 0,0 l/m 0,0 km/h (0 Bft) O-SO 112 1,8 C 4,5 C 0,0 km/h (0 Bft)
12.01.2014 06:40 3,6 C 88 % 1024,0 hPa 0,0 l/m 0,0 km/h (0 Bft) SW 225 1,8 C 4,5 C 0,0 km/h (0 Bft)
12.01.2014 06:45 3,6 C 88 % 1024,2 hPa 0,0 l/m 0,0 km/h (0 Bft) SW 225 1,8 C 4,5 C 0,0 km/h (0 Bft)
12.01.2014 06:50 3,8 C 88 % 1024,2 hPa 0,0 l/m 0,0 km/h (0 Bft) NO 45 2,0 C 4,4 C 0,0 km/h (0 Bft)
12.01.2014 06:53 3,8 C 88 % 1024,2 hPa 0,0 l/m 0,0 km/h (0 Bft) N-NO 22 2,0 C 4,4 C 0,0 km/h (0 Bft)
12.01.2014 06:55 3,8 C 88 % 1024,2 hPa 0,0 l/m 0,0 km/h (0 Bft) N-NO 22 2,0 C 4,4 C 0,0 km/h (0 Bft)
12.01.2014 07:00 3,7 C 88 % 1024,2 hPa 0,0 l/m 0,0 km/h (0 Bft) N-NO 22 1,9 C 4,4 C 0,0 km/h (0 Bft)
12.01.2014 07:05 3,7 C 88 % 1024,0 hPa 0,0 l/m 0,0 km/h (0 Bft) N 360 1,9 C 4,3 C 0,0 km/h (0 Bft)
12.01.2014 07:10 3,7 C 88 % 1024,0 hPa 0,0 l/m 0,3 km/h (0 Bft) NW 315 1,9 C 4,3 C 0,0 km/h (0 Bft)
12.01.2014 07:15 3,8 C 89 % 1024,0 hPa 0,0 l/m 0,3 km/h (0 Bft) N-NW 337 2,2 C 4,3 C 0,0 km/h (0 Bft)
12.01.2014 07:20 3,7 C 89 % 1024,0 hPa 0,0 l/m 2,9 km/h (1 Bft) N-NW 337 2,1 C 4,3 C 6,1 km/h (2 Bft)
12.01.2014 07:25 3,6 C 89 % 1024,1 hPa 0,0 l/m 4,3 km/h (1 Bft) NW 315 2,0 C 3,4 C 7,2 km/h (2 Bft)
12.01.2014 07:30 3,5 C 90 % 1024,1 hPa 0,0 l/m 4,2 km/h (1 Bft) N 360 2,0 C 3,4 C 7,2 km/h (2 Bft)
12.01.2014 07:35 3,5 C 90 % 1024,1 hPa 0,0 l/m 4,5 km/h (1 Bft) N 360 2,0 C 3,3 C 7,7 km/h (2 Bft)
12.01.2014 07:40 3,3 C 90 % 1024,1 hPa 0,0 l/m 4,7 km/h (1 Bft) N 360 1,8 C 2,9 C 3,9 km/h (1 Bft)
12.01.2014 07:45 3,3 C 91 % 1024,0 hPa 0,0 l/m 4,8 km/h (1 Bft) N-NW 337 2,0 C 2,8 C 5,0 km/h (1 Bft)
12.01.2014 07:50 3,1 C 91 % 1024,0 hPa 0,0 l/m 4,7 km/h (1 Bft) N 360 1,8 C 2,6 C 4,8 km/h (1 Bft)
12.01.2014 07:55 3,1 C 91 % 1024,0 hPa 0,0 l/m 4,0 km/h (1 Bft) N 360 1,8 C 2,8 C 4,5 km/h (1 Bft)
12.01.2014 08:00 3,0 C 91 % 1024,0 hPa 0,0 l/m 2,7 km/h (1 Bft) W 270 1,7 C 3,4 C 0,0 km/h (0 Bft)
12.01.2014 08:05 3,0 C 91 % 1023,5 hPa 0,0 l/m 2,6 km/h (1 Bft) W-NW 292 1,7 C 3,4 C 3,5 km/h (1 Bft)
12.01.2014 08:10 3,0 C 92 % 1023,5 hPa 0,0 l/m 3,5 km/h (1 Bft) N-NW 337 1,8 C 2,9 C 3,9 km/h (1 Bft)
12.01.2014 08:15 2,9 C 93 % 1023,5 hPa 0,0 l/m 2,9 km/h (1 Bft) N-NO 22 1,9 C 3,3 C 0,0 km/h (0 Bft)
12.01.2014 08:20 2,9 C 93 % 1023,5 hPa 0,0 l/m 1,9 km/h (1 Bft) N-NW 337 1,9 C 3,3 C 7,4 km/h (2 Bft)
12.01.2014 08:25 2,9 C 93 % 1023,8 hPa 0,0 l/m 2,4 km/h (1 Bft) N-NW 337 1,9 C 3,3 C 4,7 km/h (1 Bft)
12.01.2014 08:30 2,9 C 93 % 1023,8 hPa 0,0 l/m 4,0 km/h (1 Bft) N-NW 337 1,9 C 2,6 C 6,1 km/h (2 Bft)
12.01.2014 08:35 2,9 C 93 % 1023,8 hPa 0,0 l/m 4,2 km/h (1 Bft) NO 45 1,9 C 2,5 C 3,7 km/h (1 Bft)
12.01.2014 08:40 2,9 C 93 % 1023,8 hPa 0,0 l/m 4,2 km/h (1 Bft) N 360 1,9 C 2,6 C 4,5 km/h (1 Bft)
12.01.2014 08:45 2,9 C 93 % 1024,3 hPa 0,0 l/m 3,9 km/h (1 Bft) N-NW 337 1,9 C 2,8 C 2,7 km/h (1 Bft)
12.01.2014 08:50 3,0 C 92 % 1024,3 hPa 0,0 l/m 3,9 km/h (1 Bft) S-SO 157 1,8 C 2,8 C 5,8 km/h (2 Bft)
12.01.2014 08:55 3,0 C 92 % 1024,3 hPa 0,0 l/m 3,5 km/h (1 Bft) N-NW 337 1,8 C 2,9 C 5,5 km/h (1 Bft)
12.01.2014 09:00 3,1 C 92 % 1024,3 hPa 0,0 l/m 3,9 km/h (1 Bft) N-NW 337 1,9 C 2,9 C 4,2 km/h (1 Bft)
12.01.2014 09:05 3,1 C 92 % 1024,7 hPa 0,0 l/m 4,2 km/h (1 Bft) N 360 1,9 C 2,8 C 4,5 km/h (1 Bft)
12.01.2014 09:10 3,1 C 92 % 1024,7 hPa 0,0 l/m 2,4 km/h (1 Bft) N-NW 337 1,9 C 3,7 C 1,8 km/h (1 Bft)
12.01.2014 09:15 3,3 C 92 % 1024,7 hPa 0,0 l/m 1,0 km/h (0 Bft) NW 315 2,1 C 3,8 C 0,0 km/h (0 Bft)
12.01.2014 09:20 3,2 C 92 % 1024,7 hPa 0,0 l/m 1,1 km/h (1 Bft) N 360 2,0 C 4,0 C 5,3 km/h (1 Bft)
12.01.2014 09:25 3,2 C 91 % 1024,8 hPa 0,0 l/m 2,6 km/h (1 Bft) N-NO 22 1,9 C 4,0 C 6,8 km/h (2 Bft)
12.01.2014 09:30 3,1 C 91 % 1024,8 hPa 0,0 l/m 4,0 km/h (1 Bft) W-NW 292 1,8 C 3,2 C 0,0 km/h (0 Bft)
12.01.2014 09:35 3,2 C 91 % 1024,8 hPa 0,0 l/m 2,9 km/h (1 Bft) W-NW 292 1,9 C 3,8 C 0,0 km/h (0 Bft)
12.01.2014 09:40 3,3 C 91 % 1024,8 hPa 0,0 l/m 1,0 km/h (0 Bft) O-NO 67 2,0 C 4,1 C 0,0 km/h (0 Bft)
12.01.2014 09:45 3,4 C 91 % 1024,7 hPa 0,0 l/m 0,8 km/h (0 Bft) O-SO 112 2,1 C 4,2 C 0,0 km/h (0 Bft)
12.01.2014 09:50 3,4 C 91 % 1024,7 hPa 0,0 l/m 1,1 km/h (1 Bft) N-NW 337 2,1 C 4,2 C 2,4 km/h (1 Bft)
12.01.2014 09:55 3,5 C 91 % 1024,7 hPa 0,0 l/m 0,6 km/h (0 Bft) N 360 2,2 C 4,3 C 0,0 km/h (0 Bft)
12.01.2014 10:00 3,5 C 91 % 1024,7 hPa 0,0 l/m 2,1 km/h (1 Bft) N-NW 337 2,2 C 4,4 C 7,1 km/h (2 Bft)
12.01.2014 10:05 3,5 C 91 % 1024,8 hPa 0,0 l/m 3,2 km/h (1 Bft) W-NW 292 2,2 C 4,2 C 3,7 km/h (1 Bft)
12.01.2014 10:10 3,5 C 91 % 1024,8 hPa 0,0 l/m 4,0 km/h (1 Bft) N-NW 337 2,2 C 3,7 C 3,9 km/h (1 Bft)
12.01.2014 10:15 3,6 C 90 % 1024,8 hPa 0,0 l/m 3,4 km/h (1 Bft) W 270 2,1 C 4,0 C 4,5 km/h (1 Bft)
12.01.2014 10:20 3,7 C 90 % 1024,8 hPa 0,0 l/m 2,4 km/h (1 Bft) N-NW 337 2,2 C 4,5 C 6,0 km/h (2 Bft)
12.01.2014 10:25 3,8 C 90 % 1024,9 hPa 0,0 l/m 2,4 km/h (1 Bft) NO 45 2,3 C 4,6 C 3,9 km/h (1 Bft)
12.01.2014 10:30 3,9 C 90 % 1024,9 hPa 0,0 l/m 3,7 km/h (1 Bft) N 360 2,4 C 4,3 C 7,2 km/h (2 Bft)
12.01.2014 10:35 3,9 C 90 % 1024,9 hPa 0,0 l/m 3,7 km/h (1 Bft) NW 315 2,4 C 4,4 C 3,5 km/h (1 Bft)
12.01.2014 10:40 3,8 C 89 % 1024,9 hPa 0,0 l/m 3,9 km/h (1 Bft) SW 225 2,2 C 4,4 C 0,0 km/h (0 Bft)
12.01.2014 10:45 3,8 C 88 % 1024,9 hPa 0,0 l/m 3,4 km/h (1 Bft) N-NW 337 2,0 C 4,7 C 0,0 km/h (0 Bft)
12.01.2014 10:50 3,9 C 88 % 1024,9 hPa 0,0 l/m 1,8 km/h (1 Bft) NW 315 2,1 C 4,8 C 0,0 km/h (0 Bft)
12.01.2014 10:55 3,9 C 88 % 1024,9 hPa 0,0 l/m 1,8 km/h (1 Bft) N 360 2,1 C 4,9 C 2,4 km/h (1 Bft)
12.01.2014 11:00 4,0 C 88 % 1024,9 hPa 0,0 l/m 2,1 km/h (1 Bft) NW 315 2,2 C 5,0 C 4,7 km/h (1 Bft)
12.01.2014 11:05 4,0 C 87 % 1024,8 hPa 0,0 l/m 2,7 km/h (1 Bft) N-NW 337 2,0 C 5,0 C 5,1 km/h (1 Bft)
12.01.2014 11:10 4,0 C 87 % 1024,8 hPa 0,0 l/m 3,7 km/h (1 Bft) W-NW 292 2,0 C 4,7 C 3,5 km/h (1 Bft)
12.01.2014 11:15 4,0 C 86 % 1024,8 hPa 0,0 l/m 3,9 km/h (1 Bft) N 360 1,9 C 4,6 C 4,7 km/h (1 Bft)
12.01.2014 11:20 4,0 C 86 % 1024,8 hPa 0,0 l/m 3,7 km/h (1 Bft) W-NW 292 1,9 C 4,7 C 6,6 km/h (2 Bft)
12.01.2014 11:25 4,0 C 86 % 1024,4 hPa 0,0 l/m 4,0 km/h (1 Bft) N-NW 337 1,9 C 4,3 C 4,8 km/h (1 Bft)
12.01.2014 11:30 4,0 C 85 % 1024,4 hPa 0,0 l/m 4,2 km/h (1 Bft) W-NW 292 1,7 C 4,3 C 4,3 km/h (1 Bft)
12.01.2014 11:35 4,1 C 85 % 1024,4 hPa 0,0 l/m 3,4 km/h (1 Bft) W-NW 292 1,8 C 4,7 C 4,5 km/h (1 Bft)
12.01.2014 11:40 4,2 C 85 % 1024,4 hPa 0,0 l/m 2,7 km/h (1 Bft) N 360 1,9 C 5,1 C 6,3 km/h (2 Bft)
12.01.2014 11:45 4,2 C 84 % 1024,2 hPa 0,0 l/m 2,4 km/h (1 Bft) N-NO 22 1,7 C 5,1 C 0,0 km/h (0 Bft)
12.01.2014 11:50 4,4 C 83 % 1024,2 hPa 0,0 l/m 2,7 km/h (1 Bft) W-NW 292 1,8 C 5,4 C 3,1 km/h (1 Bft)
12.01.2014 11:54 4,5 C 82 % 1024,2 hPa 0,0 l/m 2,1 km/h (1 Bft) NO 45 1,7 C 5,6 C 0,0 km/h (0 Bft)
12.01.2014 11:55 4,5 C 82 % 1024,2 hPa 0,0 l/m 2,1 km/h (1 Bft) NO 45 1,7 C 5,6 C 0,0 km/h (0 Bft)
12.01.2014 12:00 4,5 C 82 % 1024,2 hPa 0,0 l/m 2,1 km/h (1 Bft) N-NW 337 1,7 C 5,7 C 4,8 km/h (1 Bft)
12.01.2014 12:05 4,3 C 82 % 1024,1 hPa 0,0 l/m 2,7 km/h (1 Bft) N 360 1,5 C 5,6 C 4,8 km/h (1 Bft)
12.01.2014 12:10 4,3 C 82 % 1024,1 hPa 0,0 l/m 2,9 km/h (1 Bft) W-NW 292 1,5 C 5,5 C 2,4 km/h (1 Bft)
12.01.2014 12:15 4,5 C 82 % 1024,1 hPa 0,0 l/m 3,1 km/h (1 Bft) N 360 1,7 C 5,5 C 3,5 km/h (1 Bft)
12.01.2014 12:20 4,5 C 81 % 1024,1 hPa 0,0 l/m 3,7 km/h (1 Bft) N 360 1,5 C 5,2 C 2,9 km/h (1 Bft)
12.01.2014 12:25 4,6 C 81 % 1024,0 hPa 0,0 l/m 2,9 km/h (1 Bft) W-NW 292 1,6 C 5,7 C 1,6 km/h (1 Bft)
12.01.2014 12:30 4,7 C 80 % 1024,0 hPa 0,0 l/m 2,4 km/h (1 Bft) N-NO 22 1,6 C 6,0 C 4,2 km/h (1 Bft)
12.01.2014 12:35 4,7 C 80 % 1024,0 hPa 0,0 l/m 3,2 km/h (1 Bft) W 270 1,6 C 5,9 C 4,0 km/h (1 Bft)
12.01.2014 12:40 4,6 C 79 % 1024,0 hPa 0,0 l/m 3,5 km/h (1 Bft) W 270 1,3 C 5,7 C 4,5 km/h (1 Bft)
12.01.2014 12:45 4,8 C 79 % 1023,8 hPa 0,0 l/m 3,5 km/h (1 Bft) W-NW 292 1,5 C 5,7 C 4,3 km/h (1 Bft)
12.01.2014 12:50 4,9 C 80 % 1023,8 hPa 0,0 l/m 3,7 km/h (1 Bft) N 360 1,7 C 5,7 C 7,2 km/h (2 Bft)
12.01.2014 12:55 4,7 C 79 % 1023,8 hPa 0,0 l/m 4,0 km/h (1 Bft) N-NW 337 1,4 C 5,5 C 3,7 km/h (1 Bft)
12.01.2014 13:00 4,7 C 79 % 1023,8 hPa 0,0 l/m 4,2 km/h (1 Bft) N 360 1,4 C 5,6 C 3,9 km/h (1 Bft)
12.01.2014 13:05 4,6 C 79 % 1023,4 hPa 0,0 l/m 4,0 km/h (1 Bft) N-NW 337 1,3 C 5,5 C 4,8 km/h (1 Bft)
12.01.2014 13:10 4,7 C 79 % 1023,4 hPa 0,0 l/m 4,3 km/h (1 Bft) W-NW 292 1,4 C 5,2 C 7,1 km/h (2 Bft)
12.01.2014 13:15 4,6 C 79 % 1023,4 hPa 0,0 l/m 4,8 km/h (1 Bft) N-NW 337 1,3 C 4,9 C 7,4 km/h (2 Bft)
12.01.2014 13:20 4,7 C 79 % 1023,4 hPa 0,0 l/m 5,5 km/h (1 Bft) N 360 1,4 C 4,7 C 10,3 km/h (2 Bft)
12.01.2014 13:25 4,7 C 79 % 1023,4 hPa 0,0 l/m 5,3 km/h (1 Bft) NO 45 1,4 C 4,8 C 9,8 km/h (2 Bft)
12.01.2014 13:30 4,6 C 79 % 1023,4 hPa 0,0 l/m 5,3 km/h (1 Bft) W 270 1,3 C 4,8 C 4,8 km/h (1 Bft)
12.01.2014 13:35 4,7 C 79 % 1023,4 hPa 0,0 l/m 4,5 km/h (1 Bft) W-NW 292 1,4 C 5,1 C 6,4 km/h (2 Bft)
12.01.2014 13:40 4,9 C 79 % 1023,4 hPa 0,0 l/m 4,2 km/h (1 Bft) N-NW 337 1,6 C 5,3 C 4,8 km/h (1 Bft)
12.01.2014 13:45 4,9 C 79 % 1022,9 hPa 0,0 l/m 4,7 km/h (1 Bft) N-NW 337 1,6 C 5,3 C 6,4 km/h (2 Bft)
12.01.2014 13:50 4,9 C 78 % 1022,9 hPa 0,0 l/m 5,1 km/h (1 Bft) N 360 1,4 C 5,3 C 7,6 km/h (2 Bft)
12.01.2014 13:55 4,7 C 78 % 1022,9 hPa 0,0 l/m 5,8 km/h (2 Bft) N 360 1,2 C 5,1 C 7,1 km/h (2 Bft)
12.01.2014 14:00 4,7 C 78 % 1022,9 hPa 0,0 l/m 5,3 km/h (1 Bft) N-NW 337 1,2 C 4,9 C 5,5 km/h (1 Bft)
12.01.2014 14:05 4,7 C 78 % 1022,5 hPa 0,0 l/m 5,0 km/h (1 Bft) N 360 1,2 C 5,2 C 8,0 km/h (2 Bft)
12.01.2014 14:10 4,9 C 79 % 1022,5 hPa 0,0 l/m 4,5 km/h (1 Bft) NW 315 1,6 C 5,4 C 6,8 km/h (2 Bft)
12.01.2014 14:15 4,8 C 78 % 1022,5 hPa 0,0 l/m 4,8 km/h (1 Bft) N-NW 337 1,3 C 5,3 C 8,2 km/h (2 Bft)
12.01.2014 14:20 4,4 C 78 % 1022,5 hPa 0,0 l/m 5,0 km/h (1 Bft) W-NW 292 0,9 C 4,9 C 4,3 km/h (1 Bft)
12.01.2014 14:25 4,1 C 79 % 1022,4 hPa 0,0 l/m 4,2 km/h (1 Bft) N-NW 337 0,8 C 4,8 C 5,0 km/h (1 Bft)
12.01.2014 14:30 3,8 C 80 % 1022,4 hPa 0,0 l/m 3,5 km/h (1 Bft) W-NW 292 0,7 C 4,8 C 4,8 km/h (1 Bft)
12.01.2014 14:35 3,6 C 80 % 1022,4 hPa 0,0 l/m 3,1 km/h (1 Bft) N 360 0,5 C 5,1 C 0,0 km/h (0 Bft)
12.01.2014 14:40 3,6 C 81 % 1022,4 hPa 0,0 l/m 2,9 km/h (1 Bft) NO 45 0,7 C 5,0 C 4,0 km/h (1 Bft)
12.01.2014 14:45 3,6 C 81 % 1022,1 hPa 0,0 l/m 3,1 km/h (1 Bft) N-NW 337 0,7 C 4,9 C 5,6 km/h (1 Bft)
12.01.2014 14:50 3,7 C 82 % 1022,1 hPa 0,0 l/m 3,4 km/h (1 Bft) N 360 0,9 C 5,9 C 5,8 km/h (2 Bft)
12.01.2014 14:55 3,6 C 82 % 1022,1 hPa 0,0 l/m 3,2 km/h (1 Bft) N-NW 337 0,8 C 6,6 C 5,1 km/h (1 Bft)
12.01.2014 15:00 3,8 C 82 % 1022,1 hPa 0,0 l/m 3,2 km/h (1 Bft) N-NW 337 1,0 C 6,8 C 7,7 km/h (2 Bft)
12.01.2014 15:05 3,8 C 82 % 1022,1 hPa 0,0 l/m 4,2 km/h (1 Bft) N-NW 337 1,0 C 6,1 C 6,6 km/h (2 Bft)
12.01.2014 15:10 3,8 C 83 % 1022,1 hPa 0,0 l/m 5,1 km/h (1 Bft) N 360 1,2 C 5,3 C 5,3 km/h (1 Bft)
12.01.2014 15:15 3,8 C 83 % 1022,1 hPa 0,0 l/m 5,1 km/h (1 Bft) N-NO 22 1,2 C 5,2 C 3,5 km/h (1 Bft)
12.01.2014 15:20 3,4 C 83 % 1022,1 hPa 0,0 l/m 3,7 km/h (1 Bft) NO 45 0,8 C 5,7 C 2,6 km/h (1 Bft)
12.01.2014 15:25 3,4 C 83 % 1022,0 hPa 0,0 l/m 3,2 km/h (1 Bft) N-NW 337 0,8 C 6,1 C 4,2 km/h (1 Bft)
12.01.2014 15:30 3,5 C 84 % 1022,0 hPa 0,0 l/m 3,5 km/h (1 Bft) N-NO 22 1,1 C 5,3 C 2,7 km/h (1 Bft)
12.01.2014 15:35 3,5 C 84 % 1022,0 hPa 0,0 l/m 3,5 km/h (1 Bft) N-NW 337 1,1 C 5,0 C 4,0 km/h (1 Bft)
12.01.2014 15:40 3,2 C 83 % 1022,0 hPa 0,0 l/m 3,1 km/h (1 Bft) N 360 0,6 C 4,7 C 2,1 km/h (1 Bft)
12.01.2014 15:45 3,5 C 84 % 1021,9 hPa 0,0 l/m 2,9 km/h (1 Bft) N 360 1,1 C 4,6 C 8,2 km/h (2 Bft)
12.01.2014 15:50 3,6 C 84 % 1021,9 hPa 0,0 l/m 3,1 km/h (1 Bft) N-NO 22 1,2 C 4,4 C 4,0 km/h (1 Bft)
12.01.2014 15:55 3,8 C 84 % 1021,9 hPa 0,0 l/m 4,3 km/h (1 Bft) N 360 1,4 C 3,8 C 3,5 km/h (1 Bft)
12.01.2014 16:00 3,3 C 83 % 1021,9 hPa 0,0 l/m 4,0 km/h (1 Bft) N-NW 337 0,7 C 3,8 C 3,5 km/h (1 Bft)
12.01.2014 16:05 3,3 C 84 % 1021,8 hPa 0,0 l/m 3,4 km/h (1 Bft) N 360 0,9 C 4,0 C 6,8 km/h (2 Bft)
12.01.2014 16:10 3,4 C 85 % 1021,8 hPa 0,0 l/m 3,9 km/h (1 Bft) S-SO 157 1,1 C 3,7 C 5,3 km/h (1 Bft)
12.01.2014 16:15 3,2 C 84 % 1021,8 hPa 0,0 l/m 4,2 km/h (1 Bft) N 360 0,8 C 3,4 C 4,0 km/h (1 Bft)
12.01.2014 16:20 2,9 C 85 % 1021,8 hPa 0,0 l/m 2,6 km/h (1 Bft) NO 45 0,6 C 3,8 C 3,2 km/h (1 Bft)
12.01.2014 16:25 2,7 C 85 % 1021,5 hPa 0,0 l/m 1,6 km/h (1 Bft) N 360 0,4 C 3,5 C 0,0 km/h (0 Bft)
12.01.2014 16:30 2,7 C 86 % 1021,5 hPa 0,0 l/m 1,3 km/h (1 Bft) NO 45 0,6 C 3,2 C 3,1 km/h (1 Bft)
12.01.2014 16:35 2,5 C 86 % 1021,5 hPa 0,0 l/m 1,9 km/h (1 Bft) N-NO 22 0,4 C 2,9 C 3,4 km/h (1 Bft)
12.01.2014 16:40 2,5 C 86 % 1021,5 hPa 0,0 l/m 2,6 km/h (1 Bft) NO 45 0,4 C 2,7 C 2,9 km/h (1 Bft)
12.01.2014 16:45 2,3 C 86 % 1021,2 hPa 0,0 l/m 2,6 km/h (1 Bft) N-NO 22 0,2 C 2,6 C 3,1 km/h (1 Bft)
12.01.2014 16:50 2,1 C 87 % 1021,2 hPa 0,0 l/m 2,1 km/h (1 Bft) N-NO 22 0,2 C 2,2 C 2,9 km/h (1 Bft)
12.01.2014 16:54 2,1 C 87 % 1021,2 hPa 0,0 l/m 2,4 km/h (1 Bft) N-NO 22 0,2 C 2,1 C 0,0 km/h (0 Bft)
12.01.2014 16:55 2,1 C 87 % 1021,2 hPa 0,0 l/m 2,4 km/h (1 Bft) N-NO 22 0,2 C 2,1 C 0,0 km/h (0 Bft)
12.01.2014 17:00 2,1 C 88 % 1021,2 hPa 0,0 l/m 3,2 km/h (1 Bft) NO 45 0,3 C 1,5 C 6,0 km/h (2 Bft)
12.01.2014 17:05 1,9 C 88 % 1021,2 hPa 0,0 l/m 2,9 km/h (1 Bft) N 360 0,1 C 1,6 C 3,4 km/h (1 Bft)
12.01.2014 17:10 1,8 C 88 % 1021,2 hPa 0,0 l/m 3,2 km/h (1 Bft) N-NO 22 0,0 C 1,2 C 2,9 km/h (1 Bft)
12.01.2014 17:15 1,6 C 88 % 1021,2 hPa 0,0 l/m 3,2 km/h (1 Bft) O-NO 67 -0,2 C 1,2 C 4,0 km/h (1 Bft)
12.01.2014 17:20 1,5 C 89 % 1021,2 hPa 0,0 l/m 3,2 km/h (1 Bft) NO 45 -0,1 C 0,8 C 5,5 km/h (1 Bft)
12.01.2014 17:25 1,5 C 89 % 1020,9 hPa 0,0 l/m 3,4 km/h (1 Bft) N-NO 22 -0,1 C 0,7 C 4,3 km/h (1 Bft)
12.01.2014 17:30 1,5 C 89 % 1020,9 hPa 0,0 l/m 3,9 km/h (1 Bft) O 90 -0,1 C 0,4 C 3,5 km/h (1 Bft)
12.01.2014 17:35 1,4 C 89 % 1020,9 hPa 0,0 l/m 3,7 km/h (1 Bft) NO 45 -0,2 C 0,4 C 3,7 km/h (1 Bft)
12.01.2014 17:40 1,3 C 89 % 1020,9 hPa 0,0 l/m 3,1 km/h (1 Bft) NO 45 -0,3 C 0,6 C 1,6 km/h (1 Bft)
12.01.2014 17:45 1,2 C 89 % 1020,8 hPa 0,0 l/m 1,6 km/h (1 Bft) O-NO 67 -0,4 C 0,8 C 2,6 km/h (1 Bft)
12.01.2014 17:50 1,1 C 90 % 1020,8 hPa 0,0 l/m 1,1 km/h (1 Bft) O-NO 67 -0,4 C 0,6 C 3,1 km/h (1 Bft)
12.01.2014 17:55 1,2 C 90 % 1020,8 hPa 0,0 l/m 2,6 km/h (1 Bft) NO 45 -0,3 C 0,4 C 2,7 km/h (1 Bft)
12.01.2014 18:00 1,1 C 90 % 1020,8 hPa 0,0 l/m 3,4 km/h (1 Bft) O-NO 67 -0,4 C -0,4 C 3,9 km/h (1 Bft)
12.01.2014 18:05 1,0 C 91 % 1020,8 hPa 0,0 l/m 3,1 km/h (1 Bft) NO 45 -0,3 C -0,2 C 4,0 km/h (1 Bft)
12.01.2014 18:10 0,8 C 91 % 1020,8 hPa 0,0 l/m 2,6 km/h (1 Bft) NO 45 -0,5 C -0,1 C 0,0 km/h (0 Bft)
12.01.2014 18:15 0,2 C 91 % 1020,8 hPa 0,0 l/m 1,6 km/h (1 Bft) O-SO 112 -1,1 C -0,3 C 0,0 km/h (0 Bft)
12.01.2014 18:20 -0,6 C 90 % 1020,8 hPa 0,0 l/m 0,0 km/h (0 Bft) O-SO 112 -2,0 C -0,9 C 0,0 km/h (0 Bft)
12.01.2014 18:25 -0,4 C 90 % 1020,6 hPa 0,0 l/m 0,2 km/h (0 Bft) NO 45 -1,8 C -1,1 C 0,0 km/h (0 Bft)
12.01.2014 18:30 0,0 C 91 % 1020,6 hPa 0,0 l/m 0,2 km/h (0 Bft) O-NO 67 -1,3 C -1,2 C 0,0 km/h (0 Bft)
12.01.2014 18:35 -0,5 C 90 % 1020,6 hPa 0,0 l/m 0,0 km/h (0 Bft) NO 45 -1,9 C -1,2 C 0,0 km/h (0 Bft)
12.01.2014 18:40 -1,1 C 90 % 1020,6 hPa 0,0 l/m 0,0 km/h (0 Bft) O 90 -2,5 C -1,6 C 0,0 km/h (0 Bft)
12.01.2014 18:45 -0,6 C 90 % 1020,6 hPa 0,0 l/m 0,0 km/h (0 Bft) NO 45 -2,0 C -1,8 C 0,0 km/h (0 Bft)
12.01.2014 18:50 -1,1 C 91 % 1020,6 hPa 0,0 l/m 0,0 km/h (0 Bft) NO 45 -2,4 C -1,9 C 0,0 km/h (0 Bft)
12.01.2014 18:55 -1,5 C 90 % 1020,6 hPa 0,0 l/m 0,0 km/h (0 Bft) O-SO 112 -2,9 C -2,0 C 0,0 km/h (0 Bft)
12.01.2014 19:00 -1,6 C 90 % 1020,6 hPa 0,0 l/m 0,0 km/h (0 Bft) O-NO 67 -3,0 C -2,3 C 0,0 km/h (0 Bft)
12.01.2014 19:05 -1,9 C 90 % 1020,5 hPa 0,0 l/m 0,0 km/h (0 Bft) NO 45 -3,3 C -2,4 C 0,0 km/h (0 Bft)
12.01.2014 19:10 -2,1 C 90 % 1020,5 hPa 0,0 l/m 0,0 km/h (0 Bft) O-SO 112 -3,5 C -2,5 C 0,0 km/h (0 Bft)
12.01.2014 19:15 -1,8 C 90 % 1020,5 hPa 0,0 l/m 0,2 km/h (0 Bft) NO 45 -3,2 C -2,3 C 0,0 km/h (0 Bft)
12.01.2014 19:20 -1,7 C 91 % 1020,5 hPa 0,0 l/m 0,3 km/h (0 Bft) O-SO 112 -3,0 C -2,0 C 0,0 km/h (0 Bft)
12.01.2014 19:25 -1,9 C 91 % 1020,2 hPa 0,0 l/m 0,3 km/h (0 Bft) NO 45 -3,2 C -1,9 C 0,0 km/h (0 Bft)
12.01.2014 19:30 -2,0 C 91 % 1020,2 hPa 0,0 l/m 0,3 km/h (0 Bft) NO 45 -3,3 C -1,7 C 0,0 km/h (0 Bft)
12.01.2014 19:35 -1,8 C 91 % 1020,2 hPa 0,0 l/m 0,3 km/h (0 Bft) O 90 -3,1 C -1,7 C 0,0 km/h (0 Bft)
12.01.2014 19:40 -2,0 C 91 % 1020,2 hPa 0,0 l/m 0,0 km/h (0 Bft) NO 45 -3,3 C -1,9 C 0,0 km/h (0 Bft)
12.01.2014 19:45 -2,1 C 91 % 1020,1 hPa 0,0 l/m 0,0 km/h (0 Bft) N-NO 22 -3,4 C -2,1 C 0,0 km/h (0 Bft)
12.01.2014 19:50 -2,5 C 91 % 1020,1 hPa 0,0 l/m 0,0 km/h (0 Bft) O 90 -3,8 C -2,4 C 0,0 km/h (0 Bft)
12.01.2014 19:55 -2,7 C 91 % 1020,1 hPa 0,0 l/m 0,0 km/h (0 Bft) SO 135 -4,0 C -2,0 C 0,0 km/h (0 Bft)
12.01.2014 20:00 -2,1 C 91 % 1020,1 hPa 0,0 l/m 0,0 km/h (0 Bft) SO 135 -3,4 C -2,6 C 0,0 km/h (0 Bft)
12.01.2014 20:05 -2,0 C 91 % 1020,1 hPa 0,0 l/m 0,0 km/h (0 Bft) SO 135 -3,3 C -2,9 C 0,0 km/h (0 Bft)
12.01.2014 20:10 -2,2 C 91 % 1020,1 hPa 0,0 l/m 0,0 km/h (0 Bft) NO 45 -3,5 C -2,9 C 0,0 km/h (0 Bft)
12.01.2014 20:15 -2,5 C 91 % 1020,1 hPa 0,0 l/m 0,0 km/h (0 Bft) NO 45 -3,8 C -2,9 C 0,0 km/h (0 Bft)
12.01.2014 20:20 -1,5 C 92 % 1020,1 hPa 0,0 l/m 1,3 km/h (1 Bft) O 90 -2,6 C -2,7 C 3,7 km/h (1 Bft)
12.01.2014 20:25 -1,8 C 92 % 1020,1 hPa 0,0 l/m 1,4 km/h (1 Bft) O-SO 112 -2,9 C -2,6 C 0,0 km/h (0 Bft)
12.01.2014 20:30 -2,4 C 92 % 1020,1 hPa 0,0 l/m 0,3 km/h (0 Bft) O-SO 112 -3,5 C -2,9 C 0,0 km/h (0 Bft)
12.01.2014 20:35 -2,8 C 91 % 1020,1 hPa 0,0 l/m 0,0 km/h (0 Bft) NO 45 -4,1 C -3,2 C 0,0 km/h (0 Bft)
12.01.2014 20:40 -2,6 C 91 % 1020,1 hPa 0,0 l/m 0,2 km/h (0 Bft) NO 45 -3,9 C -3,4 C 0,0 km/h (0 Bft)
12.01.2014 20:45 -2,9 C 91 % 1019,6 hPa 0,0 l/m 0,2 km/h (0 Bft) O-SO 112 -4,2 C -3,6 C 0,0 km/h (0 Bft)
12.01.2014 20:50 -3,2 C 91 % 1019,6 hPa 0,0 l/m 0,0 km/h (0 Bft) O 90 -4,5 C -3,8 C 0,0 km/h (0 Bft)
12.01.2014 20:55 -3,1 C 91 % 1019,6 hPa 0,0 l/m 0,0 km/h (0 Bft) N-NO 22 -4,4 C -3,9 C 0,0 km/h (0 Bft)
12.01.2014 21:00 -3,3 C 91 % 1019,6 hPa 0,0 l/m 0,0 km/h (0 Bft) N-NO 22 -4,6 C -3,8 C 0,0 km/h (0 Bft)
12.01.2014 21:05 -3,4 C 91 % 1019,0 hPa 0,0 l/m 0,0 km/h (0 Bft) N-NO 22 -4,7 C -3,8 C 0,0 km/h (0 Bft)
12.01.2014 21:10 -3,7 C 91 % 1019,0 hPa 0,0 l/m 0,0 km/h (0 Bft) NO 45 -4,9 C -3,9 C 0,0 km/h (0 Bft)
12.01.2014 21:15 -3,6 C 91 % 1019,0 hPa 0,0 l/m 0,0 km/h (0 Bft) NO 45 -4,8 C -4,0 C 0,0 km/h (0 Bft)
12.01.2014 21:20 -3,5 C 91 % 1019,0 hPa 0,0 l/m 0,0 km/h (0 Bft) NO 45 -4,8 C -4,1 C 0,0 km/h (0 Bft)
12.01.2014 21:25 -3,6 C 91 % 1018,8 hPa 0,0 l/m 0,0 km/h (0 Bft) NO 45 -4,8 C -4,2 C 0,0 km/h (0 Bft)
12.01.2014 21:30 -3,9 C 91 % 1018,8 hPa 0,0 l/m 0,0 km/h (0 Bft) NO 45 -5,1 C -4,5 C 0,0 km/h (0 Bft)
12.01.2014 21:35 -3,8 C 91 % 1018,8 hPa 0,0 l/m 0,0 km/h (0 Bft) NO 45 -5,0 C -4,6 C 0,0 km/h (0 Bft)
12.01.2014 21:40 -3,7 C 91 % 1018,8 hPa 0,0 l/m 0,0 km/h (0 Bft) NO 45 -4,9 C -4,7 C 0,0 km/h (0 Bft)
12.01.2014 21:45 -3,8 C 91 % 1018,2 hPa 0,0 l/m 0,0 km/h (0 Bft) N-NO 22 -5,0 C -4,6 C 0,0 km/h (0 Bft)
12.01.2014 21:50 -3,8 C 91 % 1018,2 hPa 0,0 l/m 0,0 km/h (0 Bft) O-SO 112 -5,0 C -4,6 C 0,0 km/h (0 Bft)
12.01.2014 21:55 -3,5 C 91 % 1018,2 hPa 0,0 l/m 0,0 km/h (0 Bft) O 90 -4,8 C -4,6 C 0,0 km/h (0 Bft)
12.01.2014 22:00 -3,8 C 91 % 1018,2 hPa 0,0 l/m 0,0 km/h (0 Bft) O-SO 112 -5,0 C -4,7 C 0,0 km/h (0 Bft)
12.01.2014 22:05 -3,9 C 91 % 1018,2 hPa 0,0 l/m 0,0 km/h (0 Bft) O-SO 112 -5,1 C -4,8 C 0,0 km/h (0 Bft)
12.01.2014 22:10 -3,2 C 91 % 1018,2 hPa 0,0 l/m 0,6 km/h (0 Bft) NO 45 -4,5 C -4,5 C 0,0 km/h (0 Bft)
12.01.2014 22:15 -3,3 C 91 % 1018,2 hPa 0,0 l/m 0,6 km/h (0 Bft) NO 45 -4,6 C -4,4 C 0,0 km/h (0 Bft)
12.01.2014 22:20 -3,0 C 92 % 1018,2 hPa 0,0 l/m 0,2 km/h (0 Bft) N-NO 22 -4,1 C -4,2 C 0,0 km/h (0 Bft)
12.01.2014 22:25 -3,8 C 91 % 1018,4 hPa 0,0 l/m 0,2 km/h (0 Bft) N-NO 22 -5,0 C -4,2 C 0,0 km/h (0 Bft)
12.01.2014 22:30 -3,3 C 91 % 1018,4 hPa 0,0 l/m 0,3 km/h (0 Bft) O 90 -4,6 C -4,5 C 0,0 km/h (0 Bft)
12.01.2014 22:35 -3,8 C 91 % 1018,4 hPa 0,0 l/m 0,3 km/h (0 Bft) SO 135 -5,0 C -4,5 C 0,0 km/h (0 Bft)
12.01.2014 22:40 -4,0 C 91 % 1018,4 hPa 0,0 l/m 0,0 km/h (0 Bft) NO 45 -5,2 C -4,7 C 0,0 km/h (0 Bft)
12.01.2014 22:45 -4,0 C 91 % 1018,1 hPa 0,0 l/m 0,0 km/h (0 Bft) NO 45 -5,2 C -4,8 C 0,0 km/h (0 Bft)
12.01.2014 22:48 -4,2 C 91 % 1018,1 hPa 0,0 l/m 0,0 km/h (0 Bft) SO 135 -5,4 C -4,8 C 0,0 km/h (0 Bft)
12.01.2014 22:50 -4,2 C 91 % 1018,1 hPa 0,0 l/m 0,0 km/h (0 Bft) SO 135 -5,4 C -4,8 C 0,0 km/h (0 Bft)
12.01.2014 22:55 -4,3 C 91 % 1018,1 hPa 0,0 l/m 0,0 km/h (0 Bft) O-SO 112 -5,5 C -4,9 C 0,0 km/h (0 Bft)
12.01.2014 23:00 -4,1 C 91 % 1018,1 hPa 0,0 l/m 0,3 km/h (0 Bft) O-SO 112 -5,3 C -5,0 C 3,5 km/h (1 Bft)
12.01.2014 23:05 -3,9 C 91 % 1018,1 hPa 0,0 l/m 0,6 km/h (0 Bft) NO 45 -5,1 C -4,8 C 0,0 km/h (0 Bft)
12.01.2014 23:10 -4,2 C 91 % 1018,1 hPa 0,0 l/m 1,0 km/h (0 Bft) S-SO 157 -5,4 C -4,6 C 2,7 km/h (1 Bft)
12.01.2014 23:15 -3,8 C 91 % 1018,1 hPa 0,0 l/m 1,4 km/h (1 Bft) NO 45 -5,0 C -4,5 C 4,5 km/h (1 Bft)
12.01.2014 23:20 -4,0 C 91 % 1018,1 hPa 0,0 l/m 1,4 km/h (1 Bft) NO 45 -5,2 C -4,4 C 0,0 km/h (0 Bft)
12.01.2014 23:25 -4,2 C 91 % 1018,0 hPa 0,0 l/m 0,3 km/h (0 Bft) O 90 -5,4 C -4,5 C 0,0 km/h (0 Bft)
12.01.2014 23:30 -4,3 C 91 % 1018,0 hPa 0,0 l/m 0,0 km/h (0 Bft) NO 45 -5,5 C -4,7 C 0,0 km/h (0 Bft)
12.01.2014 23:35 -4,4 C 91 % 1018,0 hPa 0,0 l/m 0,0 km/h (0 Bft) NO 45 -5,6 C -4,9 C 0,0 km/h (0 Bft)
12.01.2014 23:40 -4,7 C 91 % 1018,0 hPa 0,0 l/m 0,0 km/h (0 Bft) NO 45 -5,9 C -5,0 C 0,0 km/h (0 Bft)
12.01.2014 23:45 -4,7 C 91 % 1017,9 hPa 0,0 l/m 0,0 km/h (0 Bft) NO 45 -5,9 C -5,1 C 0,0 km/h (0 Bft)
12.01.2014 23:50 -4,9 C 91 % 1017,9 hPa 0,0 l/m 0,0 km/h (0 Bft) NO 45 -6,1 C -5,4 C 0,0 km/h (0 Bft)
12.01.2014 23:55 -4,0 C 91 % 1017,9 hPa 0,0 l/m 0,2 km/h (0 Bft) SO 135 -5,2 C -5,4 C 0,0 km/h (0 Bft)
_ Min-Zeit 23:50 14:20 23:55 - 23:50 - - 23:50 23:55 23:55
Minimum _ -4,9 C 78 % 1017,9 hPa - 0,0 km/h (0 Bft) - - -6,1 C -5,4 C 0,0 km/h (0 Bft)
_ Max-Zeit 00:35 08:45 11:00 23:55 00:30 - - 00:05 15:00 00:30
Maximum _ 5,8 C 93 % 1024,9 hPa 0,0 l/m 6,1 km/h
S-SW (2 Bft)
- - 3,3 C 6,8 C 13,5 km/h
S-SW (3 Bft)
Durchschnitt _ 2,3 C 87 % 1022,3 hPa #0,0 l/m 2,5 km/h (1 Bft) N-NW - 0,4 C 2,6 C 3,0 km/h (1 Bft)